When you browse on this site, cookies collect data to enhance your experience and personalize the content and advertising you see.
Visit our Privacy Policy to learn more. By continuing to use the site, you agree to this use of cookies and data.
  • In Austria
  • List of Countries
  • For 7 days
  • Water Temperature
  • Weather Map
  • News
  • Weather Widgets
  • user-avatar
    Login

    Hourly Weather Gryada

    Today, 18 September, Wednesday

    Time Temperature Precipitation Wind Pressure Humidity
    00:00 +8°C° 0.6 mm 4 mps 740 mmHg 85%
    01:00 +7°C° 0.6 mm 4 mps 739 mmHg 88%
    02:00 +7°C° 0 mm 4 mps 739 mmHg 92%
    03:00 +7°C° 1.4 mm 5 mps 739 mmHg 91%
    04:00 +5°C° 1.4 mm 6 mps 739 mmHg 91%
    05:00 +5°C° 1.4 mm 6 mps 739 mmHg 90%
    06:00 +5°C° 0.2 mm 6 mps 739 mmHg 89%
    07:00 +5°C° 0.2 mm 7 mps 739 mmHg 87%
    08:00 +5°C° 0.2 mm 7 mps 740 mmHg 86%
    09:00 +5°C° 0.1 mm 7 mps 740 mmHg 83%
    10:00 +7°C° 0.1 mm 6 mps 741 mmHg 81%
    11:00 +8°C° 0.1 mm 6 mps 741 mmHg 78%
    12:00 +8°C° 0.2 mm 6 mps 742 mmHg 77%
    13:00 +8°C° 0.2 mm 6 mps 742 mmHg 75%
    14:00 +9°C° 0.2 mm 7 mps 742 mmHg 74%
    15:00 +9°C° 0.1 mm 6 mps 743 mmHg 73%
    16:00 +9°C° 0.1 mm 5 mps 744 mmHg 72%
    17:00 +9°C° 0.1 mm 5 mps 744 mmHg 71%
    18:00 +9°C° 0 mm 5 mps 745 mmHg 75%
    19:00 +8°C° 0 mm 5 mps 745 mmHg 79%
    20:00 +7°C° 0 mm 5 mps 746 mmHg 82%
    21:00 +7°C° 0.1 mm 5 mps 746 mmHg 83%
    22:00 +7°C° 0.1 mm 5 mps 747 mmHg 83%
    23:00 +7°C° 0.1 mm 5 mps 747 mmHg 84%

    Tomorrow, 19 September, Thursday

    Time Temperature Precipitation Wind Pressure Humidity
    00:00 +7°C° 0 mm 5 mps 747 mmHg 86%
    01:00 +7°C° 0 mm 5 mps 748 mmHg 87%
    02:00 +7°C° 0 mm 5 mps 748 mmHg 89%
    03:00 +7°C° 0 mm 5 mps 748 mmHg 88%
    04:00 +7°C° 0 mm 5 mps 748 mmHg 88%
    05:00 +7°C° 0 mm 5 mps 749 mmHg 87%
    06:00 +7°C° 0 mm 5 mps 749 mmHg 85%
    07:00 +7°C° 0 mm 5 mps 749 mmHg 84%
    08:00 +7°C° 0 mm 5 mps 750 mmHg 82%
    09:00 +8°C° 0 mm 5 mps 750 mmHg 80%
    10:00 +8°C° 0 mm 5 mps 750 mmHg 79%
    11:00 +8°C° 0 mm 4 mps 751 mmHg 77%
    12:00 +10°C° 0 mm 4 mps 751 mmHg 74%
    13:00 +11°C° 0 mm 4 mps 751 mmHg 71%
    14:00 +12°C° 0 mm 4 mps 751 mmHg 67%
    15:00 +12°C° 0 mm 3 mps 751 mmHg 67%
    16:00 +12°C° 0 mm 3 mps 751 mmHg 66%
    17:00 +12°C° 0 mm 3 mps 751 mmHg 65%
    18:00 +10°C° 0.1 mm 2 mps 751 mmHg 72%
    19:00 +9°C° 0.1 mm 2 mps 751 mmHg 78%
    20:00 +7°C° 0.1 mm 2 mps 751 mmHg 85%
    21:00 +7°C° 0 mm 2 mps 751 mmHg 87%
    22:00 +7°C° 0 mm 2 mps 751 mmHg 90%
    23:00 +7°C° 0 mm 3 mps 751 mmHg 92%

    Day after tomorrow, 20 September, Friday

    Time Temperature Precipitation Wind Pressure Humidity
    00:00 +5°C° 0 mm 3 mps 751 mmHg 92%
    01:00 +5°C° 0 mm 3 mps 751 mmHg 93%
    02:00 +5°C° 0 mm 3 mps 751 mmHg 93%
    03:00 +5°C° 0 mm 3 mps 751 mmHg 93%
    04:00 +5°C° 0 mm 4 mps 751 mmHg 92%
    05:00 +5°C° 0 mm 4 mps 751 mmHg 92%
    06:00 +6°C° 0 mm 4 mps 752 mmHg 90%
    07:00 +6°C° 0 mm 5 mps 752 mmHg 88%
    08:00 +6°C° 0 mm 5 mps 752 mmHg 86%
    09:00 +7°C° 0 mm 5 mps 752 mmHg 80%
    10:00 +7°C° 0 mm 5 mps 753 mmHg 75%
    11:00 +8°C° 0 mm 6 mps 753 mmHg 69%
    12:00 +9°C° 0.2 mm 6 mps 753 mmHg 64%
    13:00 +9°C° 0.2 mm 6 mps 753 mmHg 59%
    14:00 +10°C° 0.2 mm 6 mps 753 mmHg 54%
    15:00 +10°C° 0.1 mm 5 mps 753 mmHg 55%
    16:00 +9°C° 0.1 mm 5 mps 753 mmHg 57%
    17:00 +10°C° 0.1 mm 4 mps 753 mmHg 59%
    18:00 +8°C° 0 mm 4 mps 754 mmHg 65%
    19:00 +7°C° 0 mm 3 mps 754 mmHg 71%
    20:00 +5°C° 0 mm 3 mps 754 mmHg 77%
    21:00 +4°C° 0 mm 3 mps 755 mmHg 80%
    22:00 +4°C° 0 mm 2 mps 755 mmHg 82%
    23:00 +4°C° 0 mm 2 mps 755 mmHg 84%

    21 September, Saturday

    Time Temperature Precipitation Wind Pressure Humidity
    00:00 +4°C° 0 mm 2 mps 755 mmHg 86%
    01:00 +3°C° 0 mm 2 mps 756 mmHg 87%
    02:00 +3°C° 0 mm 2 mps 756 mmHg 88%
    03:00 +3°C° 0 mm 2 mps 756 mmHg 88%
    04:00 +3°C° 0 mm 2 mps 756 mmHg 87%
    05:00 +3°C° 0 mm 2 mps 756 mmHg 87%
    06:00 +4°C° 0 mm 2 mps 756 mmHg 81%
    07:00 +5°C° 0 mm 2 mps 756 mmHg 75%
    08:00 +6°C° 0 mm 2 mps 756 mmHg 69%
    09:00 +8°C° 0 mm 3 mps 755 mmHg 66%
    10:00 +10°C° 0 mm 3 mps 755 mmHg 63%
    11:00 +11°C° 0 mm 4 mps 755 mmHg 61%
    12:00 +11°C° 0 mm 4 mps 755 mmHg 65%
    13:00 +10°C° 0 mm 5 mps 754 mmHg 69%
    14:00 +10°C° 0 mm 5 mps 754 mmHg 74%
    15:00 +10°C° 0 mm 5 mps 754 mmHg 74%
    16:00 +12°C° 0 mm 5 mps 753 mmHg 74%
    17:00 +13°C° 0 mm 4 mps 753 mmHg 73%
    18:00 +13°C° 0 mm 4 mps 753 mmHg 75%
    19:00 +13°C° 0 mm 4 mps 753 mmHg 76%
    20:00 +13°C° 0 mm 4 mps 753 mmHg 77%
    21:00 +12°C° 0 mm 4 mps 753 mmHg 79%
    22:00 +12°C° 0 mm 5 mps 753 mmHg 81%
    23:00 +10°C° 0 mm 5 mps 752 mmHg 84%

    22 September, Sunday

    Time Temperature Precipitation Wind Pressure Humidity
    00:00 +10°C° 0 mm 5 mps 752 mmHg 85%
    01:00 +9°C° 0 mm 5 mps 752 mmHg 87%
    02:00 +9°C° 0 mm 5 mps 752 mmHg 88%
    03:00 +9°C° 0 mm 5 mps 752 mmHg 89%
    04:00 +8°C° 0 mm 5 mps 752 mmHg 89%
    05:00 +8°C° 0 mm 5 mps 752 mmHg 90%
    06:00 +9°C° 0 mm 5 mps 752 mmHg 88%
    07:00 +10°C° 0 mm 5 mps 752 mmHg 86%
    08:00 +10°C° 0 mm 5 mps 752 mmHg 83%
    09:00 +12°C° 0 mm 4 mps 752 mmHg 80%
    10:00 +13°C° 0 mm 4 mps 752 mmHg 76%
    11:00 +15°C° 0 mm 4 mps 752 mmHg 72%
    12:00 +17°C° 0 mm 3 mps 752 mmHg 68%
    13:00 +18°C° 0 mm 3 mps 752 mmHg 63%
    14:00 +19°C° 0 mm 3 mps 751 mmHg 58%
    15:00 +19°C° 0 mm 2 mps 751 mmHg 62%
    16:00 +18°C° 0 mm 2 mps 751 mmHg 65%
    17:00 +19°C° 0 mm 1 mps 751 mmHg 68%
    18:00 +16°C° 0 mm 1 mps 751 mmHg 73%
    19:00 +14°C° 0 mm 2 mps 751 mmHg 78%
    20:00 +13°C° 0 mm 2 mps 751 mmHg 83%
    21:00 +12°C° 0 mm 2 mps 752 mmHg 81%
    22:00 +12°C° 0 mm 2 mps 752 mmHg 79%
    23:00 +10°C° 0 mm 3 mps 752 mmHg 78%

    23 September, Monday

    Time Temperature Precipitation Wind Pressure Humidity
    00:00 +10°C° 0 mm 3 mps 752 mmHg 73%
    01:00 +10°C° 0 mm 3 mps 752 mmHg 69%
    02:00 +10°C° 0 mm 3 mps 752 mmHg 64%
    03:00 +9°C° 0 mm 3 mps 752 mmHg 65%
    04:00 +9°C° 0 mm 3 mps 751 mmHg 65%
    05:00 +8°C° 0 mm 3 mps 751 mmHg 66%
    06:00 +8°C° 0 mm 4 mps 751 mmHg 63%
    07:00 +8°C° 0 mm 4 mps 750 mmHg 61%
    08:00 +8°C° 0 mm 4 mps 750 mmHg 59%
    09:00 +11°C° 0 mm 4 mps 750 mmHg 57%
    10:00 +12°C° 0 mm 4 mps 750 mmHg 56%
    11:00 +13°C° 0 mm 4 mps 750 mmHg 54%
    12:00 +14°C° 0 mm 4 mps 749 mmHg 54%
    13:00 +14°C° 0 mm 4 mps 749 mmHg 54%
    14:00 +14°C° 0 mm 4 mps 748 mmHg 54%
    15:00 +14°C° 0 mm 4 mps 748 mmHg 55%
    16:00 +14°C° 0 mm 4 mps 748 mmHg 57%
    17:00 +14°C° 0 mm 3 mps 747 mmHg 58%
    18:00 +12°C° 0 mm 3 mps 747 mmHg 60%
    19:00 +11°C° 0 mm 3 mps 747 mmHg 62%
    20:00 +9°C° 0 mm 3 mps 748 mmHg 63%
    21:00 +9°C° 0 mm 3 mps 747 mmHg 63%
    22:00 +8°C° 0 mm 3 mps 747 mmHg 63%
    23:00 +8°C° 0 mm 3 mps 747 mmHg 63%
    Show more